Regional Weather Roundup
Issued by NWS Wakefield, VA

Home | Current Version | Previous Version | Text Only | Print | Product List | Glossary Off
Versions: 1 2 3 4 5 6 7 8 9 10 11 12 13 14 15 16 17 18 19 20 21 22 23 24 25 26 27 28 29 30 31 32 33 34 35 36 37 38 39 40 41 42 43 44 45 46 47 48 49 50

000
ASUS41 KAKQ 012015
RWRAKQ

REGIONAL WEATHER ROUNDUP
NATIONAL WEATHER SERVICE WAKEFIELD VA
400 PM EDT SAT AUG 01 2015

Note: "fair" indicates few or no clouds below 12,000 feet with no
significant weather and/or obstructions to visibility. * = Denotes
station may not report precipitation (e.g., rain,snow,etc.),
thunder or fog.

VAZ042-051-052>054-056-012100-
NORTHERN VIRGINIA

CITY           SKY/WX    TMP DP  RH WIND       PRES   REMARKS
WASH NATIONAL  MOSUNNY   92  64  39 W9G16     29.85F
DULLES         MOSUNNY   86  60  41 W6        29.85F
FORT BELVOIR   NOT AVBL
QUANTICO       NOT AVBL
FREDERICKSBRG* SUNNY     91  63  38 SW5G16    29.84F
STAFFORD*      MOSUNNY   88  61  39 SW6       29.89F
WARRENTON      PTSUNNY   85  69  57 N5        29.86S
CULPEPER*      CLOUDY    83  66  57 N5        29.87S
MANASSAS*      MOSUNNY   88  63  42 W3        29.86F
LEESBURG*      FAIR      90  63  40 W5        29.87F
WINCHESTER     SUNNY     90  55  31 W14       29.89S
FRONT ROYAL*   FAIR      84  61  45 NW6       29.88S
LURAY*         FAIR      91  54  27 SW7       29.89S
$$

VAZ048-049-060>072-079>083-012100-
CENTRAL AND SOUTH CENTRAL VIRGINIA

CITY           SKY/WX    TMP DP  RH WIND       PRES   REMARKS
RICHMOND       MOSUNNY   92  62  36 SW8       29.85F
CHESTERFIELD*    N/A    N/A N/A N/A MISG        N/A
PETERSBURG*    SUNNY     91  67  44 SW6       29.87F
HANOVER        SUNNY     89  63  41 VRB7      29.87F
TAPPAHANNOCK*  SUNNY     89  59  36 CALM      29.86F
QUINTON*       FAIR      90  63  40 W6        29.85F
CHARLOTTSVILLE MOSUNNY   87  63  44 VRB3      29.87F
GORDONSVILLE*  FAIR      88  63  42 SW5       29.86F
ORANGE*        MOSUNNY   90  64  43 S9        29.88F
LOUISA*        MOSUNNY   91  64  40 W6        29.86F
BUMPASS*       FAIR      89  64  43 SW10      29.86F
FARMVILLE*     MOSUNNY   92  58  31 SW8       29.86F
CREWE*         FAIR     N/A N/A N/A SW3       29.87F
FORT PICKETT*  FAIR      91  56  30 W6G20     29.88F
CHASE CITY*    FAIR      91  65  41 W3        29.88F
CLARKSVILLE*   FAIR      90  63  40 W7        29.89S
SOUTH HILL*    SUNNY     88  63  43 SW8       29.94F
LAWRENCEVILLE* FAIR      90  64  43 SW6       29.87F
EMPORIA*       SUNNY     90  59  35 W6        29.87F
$$

VAZ088>098-012100-
SOUTHEAST VIRGINIA

CITY           SKY/WX    TMP DP  RH WIND       PRES   REMARKS
NORFOLK        PTSUNNY   88  65  46 NE9       29.85F
VIRGINIA BEACH MOSUNNY   88  70  55 SE15      29.85F
NORFOLK NAVAL  PTSUNNY   90  61  37 NW7       29.87F
WEST POINT*    SUNNY     92  58  31 S9        29.86F
SALUDA*        FAIR      89  63  41 S6        29.85F
NEWPORT NEWS   SUNNY     91  60  35 SW9       29.86F
LANGLEY AFB    MOSUNNY   90  64  41 W12G20    29.85F
FORT EUSTIS    SUNNY     91  57  31 SW7       29.84F
WILLIAMSBURG*  SUNNY     95  64  36 W6        29.87F HX  97
HR EXEC AP*    FAIR      91  64  40 SW3       29.87F
FRANKLIN*      SUNNY     92  56  29 W5        29.86F
WAKEFIELD      SUNNY     92  59  33 VRB3      29.86F
$$

VAZ020-022-025-037-045-012100-
WEST CENTRAL AND SOUTHWEST VIRGINIA

CITY           SKY/WX    TMP DP  RH WIND       PRES   REMARKS
STAUNTON*      SUNNY     87  55  34 W5        29.93S
WAYNESBORO*    FAIR      84  59  42 W7        29.93F
HOT SPRINGS VA MOSUNNY   75  53  46 W8G17     30.06F
LYNCHBURG      SUNNY     86  57  37 W8        29.92F
DANVILLE       SUNNY     90  60  36 VRB6      29.90F
SOUTH BOSTON*  FAIR      89  58  35 SW6       29.89F
MARTINSVILLE   SUNNY     91  52  26 S6        29.95F
ROANOKE        MOSUNNY   89  53  29 NW13      29.94F
BLACKSBURG     MOSUNNY   83  57  41 NW14      30.03F
DUBLIN*          N/A     83  53  35 NW6       30.02F
MARION*        SUNNY     80  56  43 W13       30.07F
HILLSVILLE*    MOSUNNY   78  53  41 NW9G17    30.03S
RICHLANDS*     FAIR      77  58  50 N8        30.06F
WISE*          MOSUNNY   82  52  34 W9G17     30.08F
ABINGDON*      MOSUNNY   84  52  33 NW7       30.03F
$$

MDZ021>025-VAZ099-100-012100-
SOUTHERN MARYLAND AND THE DELMARVA PENINSULA

CITY           SKY/WX    TMP DP  RH WIND       PRES   REMARKS
PATUXENT RIVER MOSUNNY   89  63  41 SW7       29.84F
BAY BRIDGE APT   N/A     84  59  42 CALM      29.84F
LEONARDTOWN    MOSUNNY   88  57  35 SW7       29.86F
DOVER          SUNNY     87  62  42 W9        29.82F
GEORGETOWN     MOSUNNY   90  61  37 W8        29.83F
EASTON         MOSUNNY   90  66  45 NW6       29.88F
CAMBRIDGE      MOSUNNY   86  64  48 NW5         N/A
SALISBURY      SUNNY     89  59  36 SW13      29.84F
OCEAN CITY     PTSUNNY   90  60  36 SW12      29.84S
WALLOPS ISLAND SUNNY     89  64  43 W9        29.86F
ACCOMACK*      SUNNY     88  81  79 W8        29.86F HX 105
$$

NCZ012>017-030>032-012100-
NORTH CENTRAL AND EASTERN NORTH CAROLINA

CITY           SKY/WX    TMP DP  RH WIND       PRES   REMARKS
ROANOKE RAPIDS FAIR      90  59  35 CALM      29.87F
RALEIGH        MOSUNNY   92  55  28 CALM      29.89F
ELIZABETH CITY SUNNY     89  70  53 SE10      29.87F
AHOSKIE*       SUNNY     88  60  39 CALM      29.86F
EDENTON*         N/A     89  70  53 S9        29.87F
CURRITUCK*     MOSUNNY   89  65  45 S5        29.87F
KILL DEVIL HLS MOSUNNY   90  70  50 SE7       29.88F HX  95
MANTEO         SUNNY     85  71  60 S8        29.89F
CAPE HATTERAS  PTSUNNY   83  75  77 SW7       29.90F
TARBORO*         N/A     94  60  32 S5        29.87F
GOLDSBORO      SUNNY     93  67  41 W7        29.85F HX  96
WASHINGTON     SUNNY     90  64  41 W3        29.87F
GREENVILLE     MOSUNNY   95  59  30 W6        29.89F
NEW BERN       MOSUNNY   93  64  38 CALM      29.88F
WILMINGTON     CLOUDY    90  69  50 NE5       29.88F
$$

VAZ048-012100-
ELSEWHERE

CITY           SKY/WX    TMP DP  RH WIND       PRES   REMARKS
HARRISBURG PA  MOSUNNY   87  54  32 W10       29.83F
BALTIMORE      MOSUNNY   88  60  38 SW8       29.83F
ANNAPOLIS      PTSUNNY   85  63  47 CALM      29.84F
ANDREWS AFB    MOSUNNY   88  62  40 W12       29.85F
PHILADELPHIA   MOSUNNY   88  57  34 W14       29.83S
HENDERSON NC   SUNNY     90  52  27 NW5       29.90F
GREENSBORO     MOSUNNY   90  57  32 VRB6      29.92F
ROCKY MOUNT    SUNNY     96  51  21 W9        29.87F
$$

VAZ100-012100-
MARINE

STATION/POSITION TIME  TEMP    WIND        PRES    WAVE   SWELL
                       AIR SEA DIR/SP/G            HT/PER HT/PER
                 (UTC) (F)     (DEG/KT/KT) (MB)    (FT/S) (FT/S)
BRANDYWINE LGT   1900   81 77   40/  4/  5 1010.8F
CAPE MAY NJ      1900   83 80  320/  4/  5 1010.2F
LEWES DE         1900   88 74  290/  5/ 10 1010.1F
15NM E FENWICK I 1950   80 80  190/ 19/ 23 1010.3F   4/ 8   2/ 8
OCEAN-CITY-INLET 1900   79 76  210/ 14/ 17 1009.8F
WACHAPREAGUE VA  1900   87 87  210/ 12/ 15 1011.4F
THOMAS POINT MD  2000   83 81  170/  4     1011.0F
GOOSES REEF MD   2000   85 84   80/  6/  6 1011.7F
COVE POINT MD    1900   87     270/  6/ 15 1011.4F
SOLOMONS ISLAND  1900      83                N/A
BISHOPS HEAD MD  1900   85 85  230/  6/  7 1010.1F
PINEY POINT MD   1900          260/  5/  6   N/A
POTOMAC MD       2000   85 87  150/  8/ 10 1009.4F   1
CAMBRIDGE MD     1900   84 86  320/ 10/ 11 1009.9F
LEWISETTA VA     1900   87 85  240/  6/  8 1010.6F
RAPPAHANNOCK LGT 1900          190/ 10/ 11 1012.0F
STINGRAY PT      1900   88 85  240/  8/ 12 1011.5F   1
YORK RVR RNG VA  1900   89     230/  7/  8 1010.8F
YORKTOWN VA      1900   88 84  260/ 10/ 13 1011.0F
JAMESTOWN VA     2000   88 87  260/  4/  6   N/A
DOMINION TERM VA 1900   89     260/  7/  8 1011.3F
KIPTOPEKE VA     1900      81  180/ 13/ 16   N/A
CHES BAY BRIDGE  1900   84 82   50/  4/  5 1011.2F
CAPE HENRY VA    1900   83     140/ 14/ 19   N/A
CHESAPEAKE LGHT  1900   81     170/ 18/ 19 1012.2F
WILLOUBY STN VA  1900   87     270/  7/  8 1012.4F
CAPE HENRY BUOY  1928      82                N/A     3/ 8   2/12
1ST LANDING BUOY 2000      82              1011.0F   1/ 4
CAPE CHARLES BUO 1926      80                N/A     2/ 7   2/ 7
OFFSHORE WE BUOY 1911      82                N/A     3/ 8   3/ 8
64NM E OF VA BCH 1950   80 82  190/ 14/ 14 1012.0F   4/ 8   3/ 8
DUCK PIER NC     1900   81 80  140/ 12/ 13 1011.3F
44100 DUCK FRF   1924      81                N/A     3/ 8
44056 DUCK FRF   1911      79                N/A     2/ 8
OREGON INLET NC  1900   81 82  180/  9/ 12 1012.4F
HATTERAS NC      1900   84 80  170/  5/  8 1012.4F
DIAMOND SHLS NC  1950   82 85  190/ 16/ 17 1012.5F   3/ 8   2/ 8


USA.gov is the U.S. government's official web portal to all federal, state and local government web resources and services.